Time,TemperatureF,DewpointF,PressureIn,WindDirection,WindDirectionDegrees,WindSpeedMPH,WindSpeedGustMPH,Humidity,HourlyPrecipIn,Conditions,Clouds,dailyrainin,SoftwareType,DateUTC
2013-08-11 00:08:00,69.2,47.5,30.05,East,84,0.0,0.0,46,0.00,,,0.00,Wunderground v.1.13,2013-08-11 05:08:00,
2013-08-11 00:13:00,69.2,47.5,30.05,East,84,0.0,0.0,46,0.00,,,0.00,Wunderground v.1.13,2013-08-11 05:13:00,
2013-08-11 00:23:00,68.9,47.3,30.05,East,84,0.0,0.0,46,0.00,,,0.00,Wunderground v.1.13,2013-08-11 05:23:00,
2013-08-11 00:28:00,68.8,47.2,30.06,East,84,0.0,0.0,46,0.00,,,0.00,Wunderground v.1.13,2013-08-11 05:28:00,
2013-08-11 00:38:00,68.6,47.0,30.05,East,84,0.0,0.0,46,0.00,,,0.00,Wunderground v.1.13,2013-08-11 05:38:00,
2013-08-11 00:48:00,68.6,46.4,30.05,East,84,0.0,0.0,45,0.00,,,0.00,Wunderground v.1.13,2013-08-11 05:48:00,
2013-08-11 00:53:00,68.5,46.3,30.05,East,84,0.0,0.0,45,0.00,,,0.00,Wunderground v.1.13,2013-08-11 05:53:00,
2013-08-11 00:58:00,68.5,45.7,30.05,East,84,0.0,0.0,44,0.00,,,0.00,Wunderground v.1.13,2013-08-11 05:58:00,
2013-08-11 01:08:00,68.1,45.4,30.05,East,84,0.0,0.0,44,0.00,,,0.00,Wunderground v.1.13,2013-08-11 06:08:00,
2013-08-11 01:18:00,67.7,44.4,30.05,East,84,0.0,0.0,43,0.00,,,0.00,Wunderground v.1.13,2013-08-11 06:18:00,
2013-08-11 01:28:00,67.5,44.2,30.05,N/A,-737280,0.0,0.0,43,0.00,,,0.00,Wunderground v.1.13,2013-08-11 06:28:00,
2013-08-11 01:33:00,67.4,43.5,30.05,East,84,0.0,0.0,42,0.00,,,0.00,Wunderground v.1.13,2013-08-11 06:33:00,
2013-08-11 01:43:00,67.4,42.9,30.05,East,84,0.0,0.0,41,0.00,,,0.00,Wunderground v.1.13,2013-08-11 06:43:00,
2013-08-11 01:58:00,67.2,43.3,30.05,N/A,-737280,0.0,0.0,42,0.00,,,0.00,Wunderground v.1.13,2013-08-11 06:58:00,
2013-08-11 02:03:00,67.1,43.2,30.05,East,84,0.0,0.0,42,0.00,,,0.00,Wunderground v.1.13,2013-08-11 07:03:00,
2013-08-11 02:13:00,67.0,43.1,30.04,N/A,-737280,0.0,0.0,42,0.00,,,0.00,Wunderground v.1.13,2013-08-11 07:13:00,
2013-08-11 02:23:00,66.7,42.9,30.05,East,84,0.0,0.0,42,0.00,,,0.00,Wunderground v.1.13,2013-08-11 07:23:00,
2013-08-11 02:28:00,66.5,42.7,30.05,East,84,0.0,0.0,42,0.00,,,0.00,Wunderground v.1.13,2013-08-11 07:28:00,
2013-08-11 02:38:00,66.3,41.2,30.05,East,84,0.0,0.0,40,0.00,,,0.00,Wunderground v.1.13,2013-08-11 07:38:00,
2013-08-11 02:48:00,66.3,40.6,30.05,East,84,0.0,0.0,39,0.00,,,0.00,Wunderground v.1.13,2013-08-11 07:48:00,
2013-08-11 02:53:00,66.3,40.6,30.05,East,84,0.0,0.0,39,0.00,,,0.00,Wunderground v.1.13,2013-08-11 07:53:00,
2013-08-11 02:58:00,66.2,40.5,30.05,East,84,0.0,0.0,39,0.00,,,0.00,Wunderground v.1.13,2013-08-11 07:58:00,
2013-08-11 03:08:00,66.1,39.7,30.05,East,84,0.0,0.0,38,0.00,,,0.00,Wunderground v.1.13,2013-08-11 08:08:00,
2013-08-11 03:13:00,66.1,39.7,30.05,East,84,0.0,0.0,38,0.00,,,0.00,Wunderground v.1.13,2013-08-11 08:13:00,
2013-08-11 03:23:00,65.8,39.5,30.05,East,84,0.0,0.0,38,0.00,,,0.00,Wunderground v.1.13,2013-08-11 08:23:00,
2013-08-11 03:28:00,65.8,39.5,30.05,East,84,0.0,0.0,38,0.00,,,0.00,Wunderground v.1.13,2013-08-11 08:28:00,
2013-08-11 03:38:00,66.0,39.0,30.04,East,84,0.0,0.0,37,0.00,,,0.00,Wunderground v.1.13,2013-08-11 08:38:00,
2013-08-11 03:48:00,66.0,39.0,30.05,N/A,-737280,0.0,0.0,37,0.00,,,0.00,Wunderground v.1.13,2013-08-11 08:48:00,
2013-08-11 03:53:00,66.0,39.0,30.05,East,84,0.0,0.0,37,0.00,,,0.00,Wunderground v.1.13,2013-08-11 08:53:00,
2013-08-11 03:58:00,65.9,38.9,30.05,East,84,0.0,0.0,37,0.00,,,0.00,Wunderground v.1.13,2013-08-11 08:58:00,
2013-08-11 04:08:00,65.8,39.5,30.05,East,84,0.0,0.0,38,0.00,,,0.00,Wunderground v.1.13,2013-08-11 09:08:00,
2013-08-11 04:18:00,65.6,39.3,30.05,East,84,0.0,0.0,38,0.00,,,0.00,Wunderground v.1.13,2013-08-11 09:18:00,
2013-08-11 04:28:00,65.6,39.3,30.05,N/A,-737280,0.0,0.0,38,0.00,,,0.00,Wunderground v.1.13,2013-08-11 09:28:00,
2013-08-11 04:33:00,65.4,39.1,30.05,East,84,0.0,0.0,38,0.00,,,0.00,Wunderground v.1.13,2013-08-11 09:33:00,
2013-08-11 04:43:00,65.2,38.9,30.05,East,84,0.0,0.0,38,0.00,,,0.00,Wunderground v.1.13,2013-08-11 09:43:00,
2013-08-11 04:48:00,65.1,38.8,30.06,East,84,0.0,0.0,38,0.00,,,0.00,Wunderground v.1.13,2013-08-11 09:48:00,
2013-08-11 04:58:00,65.0,38.8,30.06,N/A,-737280,0.0,0.0,38,0.00,,,0.00,Wunderground v.1.13,2013-08-11 09:58:00,
2013-08-11 05:03:00,64.7,38.5,30.06,East,84,0.0,0.0,38,0.00,,,0.00,Wunderground v.1.13,2013-08-11 10:03:00,
2013-08-11 05:08:00,64.5,38.3,30.06,East,84,0.0,0.0,38,0.00,,,0.00,Wunderground v.1.13,2013-08-11 10:08:00,
2013-08-11 05:18:00,64.3,38.1,30.06,East,84,0.0,0.0,38,0.00,,,0.00,Wunderground v.1.13,2013-08-11 10:18:00,
2013-08-11 05:28:00,64.4,38.2,30.06,East,84,0.0,0.0,38,0.00,,,0.00,Wunderground v.1.13,2013-08-11 10:28:00,
2013-08-11 05:38:00,64.0,37.9,30.06,East,84,0.0,0.0,38,0.00,,,0.00,Wunderground v.1.13,2013-08-11 10:38:00,
2013-08-11 05:48:00,63.9,37.1,30.07,East,84,0.0,0.0,37,0.00,,,0.00,Wunderground v.1.13,2013-08-11 10:48:00,
2013-08-11 05:58:00,63.9,37.1,30.07,N/A,-737280,0.0,0.0,37,0.00,,,0.00,Wunderground v.1.13,2013-08-11 10:58:00,
2013-08-11 06:08:00,63.7,36.9,30.07,East,84,0.0,0.0,37,0.00,,,0.00,Wunderground v.1.13,2013-08-11 11:08:00,
2013-08-11 06:18:00,63.5,36.7,30.06,East,84,0.0,0.0,37,0.00,,,0.00,Wunderground v.1.13,2013-08-11 11:18:00,
2013-08-11 06:28:00,63.4,36.7,30.06,East,84,0.0,0.0,37,0.00,,,0.00,Wunderground v.1.13,2013-08-11 11:28:00,
2013-08-11 06:38:00,63.4,36.7,30.06,East,84,0.0,0.0,37,0.00,,,0.00,Wunderground v.1.13,2013-08-11 11:38:00,
2013-08-11 06:53:00,63.5,36.7,30.06,N/A,-737280,0.0,0.0,37,0.00,,,0.00,Wunderground v.1.13,2013-08-11 11:53:00,
2013-08-11 07:03:00,63.5,36.7,30.06,East,84,0.0,0.0,37,0.00,,,0.00,Wunderground v.1.13,2013-08-11 12:03:00,
2013-08-11 07:08:00,63.7,36.2,30.06,East,84,0.0,0.0,36,0.00,,,0.00,Wunderground v.1.13,2013-08-11 12:08:00,
2013-08-11 07:13:00,63.9,36.4,30.06,East,84,0.0,0.0,36,0.00,,,0.00,Wunderground v.1.13,2013-08-11 12:13:00,
2013-08-11 07:18:00,64.1,36.6,30.07,East,84,0.0,0.0,36,0.00,,,0.00,Wunderground v.1.13,2013-08-11 12:18:00,
2013-08-11 07:28:00,64.4,36.8,30.07,N/A,-737280,0.0,0.0,36,0.00,,,0.00,Wunderground v.1.13,2013-08-11 12:28:00,
2013-08-11 07:33:00,65.3,37.6,30.07,East,84,0.0,0.0,36,0.00,,,0.00,Wunderground v.1.13,2013-08-11 12:33:00,
2013-08-11 07:43:00,66.4,37.9,30.07,East,84,0.0,0.0,35,0.00,,,0.00,Wunderground v.1.13,2013-08-11 12:43:00,
2013-08-11 07:48:00,67.0,38.4,30.07,East,84,0.0,0.0,35,0.00,,,0.00,Wunderground v.1.13,2013-08-11 12:48:00,
2013-08-11 07:53:00,67.8,39.1,30.07,East,84,0.0,0.0,35,0.00,,,0.00,Wunderground v.1.13,2013-08-11 12:53:00,
2013-08-11 07:58:00,68.4,39.7,30.07,East,84,0.0,0.0,35,0.00,,,0.00,Wunderground v.1.13,2013-08-11 12:58:00,
2013-08-11 08:08:00,68.7,39.2,30.08,N/A,-737280,0.0,0.0,34,0.00,,,0.00,Wunderground v.1.13,2013-08-11 13:08:00,
2013-08-11 08:13:00,69.7,40.1,30.08,East,84,0.0,0.0,34,0.00,,,0.00,Wunderground v.1.13,2013-08-11 13:13:00,
2013-08-11 08:18:00,70.2,40.5,30.08,East,84,0.0,0.0,34,0.00,,,0.00,Wunderground v.1.13,2013-08-11 13:18:00,
2013-08-11 08:28:00,71.5,43.8,30.08,East,84,0.0,0.0,37,0.00,,,0.00,Wunderground v.1.13,2013-08-11 13:28:00,
2013-08-11 08:38:00,72.8,53.1,30.08,East,84,0.0,0.0,50,0.00,,,0.00,Wunderground v.1.13,2013-08-11 13:38:00,
2013-08-11 08:43:00,73.5,56.3,30.08,East,84,0.0,0.0,55,0.00,,,0.00,Wunderground v.1.13,2013-08-11 13:43:00,
2013-08-11 08:58:00,75.3,61.4,30.08,East,84,0.0,0.0,62,0.00,,,0.00,Wunderground v.1.13,2013-08-11 13:58:00,
2013-08-11 09:08:00,76.5,63.9,30.08,East,84,0.0,0.0,65,0.00,,,0.00,Wunderground v.1.13,2013-08-11 14:08:00,
2013-08-11 09:33:00,78.2,65.0,30.08,N/A,-737280,0.0,0.0,64,0.00,,,0.00,Wunderground v.1.13,2013-08-11 14:33:00,
2013-08-11 09:38:00,78.7,65.9,30.09,NNE,29,0.0,0.0,65,0.00,,,0.00,Wunderground v.1.13,2013-08-11 14:38:00,
2013-08-11 09:48:00,78.7,65.9,30.09,NNE,29,0.0,0.0,65,0.00,,,0.00,Wunderground v.1.13,2013-08-11 14:48:00,
2013-08-11 09:58:00,79.2,66.4,30.09,NNE,29,0.0,0.0,65,0.00,,,0.00,Wunderground v.1.13,2013-08-11 14:58:00,
2013-08-11 10:03:00,79.5,66.7,30.09,NNE,29,0.0,0.0,65,0.00,,,0.00,Wunderground v.1.13,2013-08-11 15:03:00,
2013-08-11 10:13:00,78.9,66.1,30.08,NNE,29,0.0,0.0,65,0.00,,,0.00,Wunderground v.1.13,2013-08-11 15:13:00,
2013-08-11 10:23:00,80.0,67.2,30.09,NNE,29,0.0,0.0,65,0.00,,,0.00,Wunderground v.1.13,2013-08-11 15:23:00,
2013-08-11 10:33:00,80.5,67.6,30.09,N/A,-737280,0.0,0.0,65,0.00,,,0.00,Wunderground v.1.13,2013-08-11 15:33:00,
2013-08-11 10:43:00,81.7,68.8,30.08,NNE,13,0.0,0.0,65,0.00,,,0.00,Wunderground v.1.13,2013-08-11 15:43:00,
2013-08-11 10:53:00,82.0,69.1,30.09,NW,311,0.0,0.0,65,0.00,,,0.00,Wunderground v.1.13,2013-08-11 15:53:00,
2013-08-11 10:58:00,81.5,68.1,30.08,NW,305,0.0,2.0,64,0.00,,,0.00,Wunderground v.1.13,2013-08-11 15:58:00,
2013-08-11 11:08:00,80.7,67.8,30.08,NNW,328,1.0,2.0,65,0.00,,,0.00,Wunderground v.1.13,2013-08-11 16:08:00,
2013-08-11 11:18:00,81.1,67.8,30.08,NW,325,0.0,1.0,64,0.00,,,0.00,Wunderground v.1.13,2013-08-11 16:18:00,
2013-08-11 11:28:00,80.5,67.6,30.09,NW,310,3.0,3.0,65,0.00,,,0.00,Wunderground v.1.13,2013-08-11 16:28:00,
2013-08-11 11:38:00,81.3,68.0,30.08,NW,310,0.0,0.0,64,0.00,,,0.00,Wunderground v.1.13,2013-08-11 16:38:00,
2013-08-11 11:48:00,81.8,68.4,30.08,N/A,-737280,0.0,0.0,64,0.00,,,0.00,Wunderground v.1.13,2013-08-11 16:48:00,
2013-08-11 11:58:00,81.2,68.3,30.08,SSW,204,0.0,0.0,65,0.00,,,0.00,Wunderground v.1.13,2013-08-11 16:58:00,
2013-08-11 12:08:00,81.4,68.1,30.08,SSW,204,0.0,0.0,64,0.00,,,0.00,Wunderground v.1.13,2013-08-11 17:08:00,
2013-08-11 12:18:00,81.7,68.8,30.08,NW,321,1.0,1.0,65,0.00,,,0.00,Wunderground v.1.13,2013-08-11 17:18:00,
2013-08-11 12:28:00,82.2,69.3,30.08,N/A,-737280,0.0,0.0,65,0.00,,,0.00,Wunderground v.1.13,2013-08-11 17:28:00,
2013-08-11 12:38:00,83.0,69.6,30.08,NW,321,0.0,0.0,64,0.00,,,0.00,Wunderground v.1.13,2013-08-11 17:38:00,
2013-08-11 12:48:00,82.5,69.1,30.08,NW,321,0.0,0.0,64,0.00,,,0.00,Wunderground v.1.13,2013-08-11 17:48:00,
2013-08-11 12:58:00,82.4,69.0,30.07,N/A,-737280,0.0,0.0,64,0.00,,,0.00,Wunderground v.1.13,2013-08-11 17:58:00,
2013-08-11 13:08:00,81.9,68.5,30.07,WSW,237,0.0,0.0,64,0.00,,,0.00,Wunderground v.1.13,2013-08-11 18:08:00,
2013-08-11 13:13:00,82.2,68.8,30.07,WSW,238,0.0,0.0,64,0.00,,,0.00,Wunderground v.1.13,2013-08-11 18:13:00,
2013-08-11 13:18:00,82.5,68.6,30.07,WSW,238,0.0,0.0,63,0.00,,,0.00,Wunderground v.1.13,2013-08-11 18:18:00,
2013-08-11 13:38:00,82.1,69.2,30.06,N/A,-737280,0.0,0.0,65,0.00,,,0.00,Wunderground v.1.13,2013-08-11 18:38:00,
2013-08-11 13:43:00,82.8,69.4,30.06,N/A,-737280,0.0,0.0,64,0.00,,,0.00,Wunderground v.1.13,2013-08-11 18:43:00,
2013-08-11 13:48:00,82.7,69.3,30.06,South,182,0.0,0.0,64,0.00,,,0.00,Wunderground v.1.13,2013-08-11 18:48:00,
2013-08-11 13:53:00,82.3,69.4,30.06,South,182,0.0,0.0,65,0.00,,,0.00,Wunderground v.1.13,2013-08-11 18:53:00,
2013-08-11 14:03:00,82.6,69.6,30.06,South,184,0.0,0.0,65,0.00,,,0.00,Wunderground v.1.13,2013-08-11 19:03:00,
2013-08-11 14:13:00,82.5,69.5,30.05,South,187,0.0,0.0,65,0.00,,,0.00,Wunderground v.1.13,2013-08-11 19:13:00,
2013-08-11 14:18:00,82.9,69.5,30.05,South,188,0.0,0.0,64,0.00,,,0.00,Wunderground v.1.13,2013-08-11 19:18:00,
2013-08-11 14:23:00,82.6,68.7,30.05,South,185,0.0,0.0,63,0.00,,,0.00,Wunderground v.1.13,2013-08-11 19:23:00,
2013-08-11 14:33:00,82.9,69.5,30.05,N/A,-737280,0.0,0.0,64,0.00,,,0.00,Wunderground v.1.13,2013-08-11 19:33:00,
2013-08-11 14:38:00,83.4,69.9,30.05,South,186,0.0,0.0,64,0.00,,,0.00,Wunderground v.1.13,2013-08-11 19:38:00,
2013-08-11 14:53:00,82.6,69.2,30.04,South,186,0.0,0.0,64,0.00,,,0.00,Wunderground v.1.13,2013-08-11 19:53:00,
2013-08-11 14:58:00,83.1,70.1,30.04,South,186,0.0,0.0,65,0.00,,,0.00,Wunderground v.1.13,2013-08-11 19:58:00,
2013-08-11 15:08:00,83.7,70.7,30.03,N/A,-737280,0.0,0.0,65,0.00,,,0.00,Wunderground v.1.13,2013-08-11 20:08:00,
2013-08-11 15:13:00,84.6,71.5,30.03,SW,224,0.0,0.0,65,0.00,,,0.00,Wunderground v.1.13,2013-08-11 20:13:00,
2013-08-11 15:18:00,84.3,70.3,30.03,West,260,0.0,0.0,63,0.00,,,0.00,Wunderground v.1.13,2013-08-11 20:18:00,
2013-08-11 15:28:00,84.1,69.7,30.03,West,260,0.0,0.0,62,0.00,,,0.00,Wunderground v.1.13,2013-08-11 20:28:00,
2013-08-11 15:33:00,84.4,71.3,30.02,West,260,0.0,0.0,65,0.00,,,0.00,Wunderground v.1.13,2013-08-11 20:33:00,
2013-08-11 15:38:00,84.9,69.9,30.02,West,263,0.0,0.0,61,0.00,,,0.00,Wunderground v.1.13,2013-08-11 20:38:00,
2013-08-11 15:48:00,84.7,70.2,30.02,West,263,0.0,0.0,62,0.00,,,0.00,Wunderground v.1.13,2013-08-11 20:48:00,
2013-08-11 15:58:00,85.2,72.1,30.01,West,264,0.0,0.0,65,0.00,,,0.00,Wunderground v.1.13,2013-08-11 20:58:00,
2013-08-11 16:08:00,85.2,72.1,30.01,West,264,0.0,0.0,65,0.00,,,0.00,Wunderground v.1.13,2013-08-11 21:08:00,
2013-08-11 16:18:00,85.7,71.7,30.01,West,264,0.0,0.0,63,0.00,,,0.00,Wunderground v.1.13,2013-08-11 21:18:00,
2013-08-11 16:28:00,85.9,70.9,30.01,N/A,-737280,0.0,0.0,61,0.00,,,0.00,Wunderground v.1.13,2013-08-11 21:28:00,
2013-08-11 16:33:00,85.9,70.4,30.00,N/A,-737280,0.0,0.0,60,0.00,,,0.00,Wunderground v.1.13,2013-08-11 21:33:00,
2013-08-11 16:38:00,86.1,70.6,30.00,N/A,-737280,0.0,0.0,60,0.00,,,0.00,Wunderground v.1.13,2013-08-11 21:38:00,
2013-08-11 16:43:00,86.4,70.4,30.00,West,264,0.0,0.0,59,0.00,,,0.00,Wunderground v.1.13,2013-08-11 21:43:00,
2013-08-11 16:53:00,86.7,71.2,30.00,West,264,0.0,0.0,60,0.00,,,0.00,Wunderground v.1.13,2013-08-11 21:53:00,
2013-08-11 17:03:00,86.7,71.6,30.00,West,264,0.0,0.0,61,0.00,,,0.00,Wunderground v.1.13,2013-08-11 22:03:00,
2013-08-11 17:13:00,87.3,71.7,30.00,West,264,0.0,0.0,60,0.00,,,0.00,Wunderground v.1.13,2013-08-11 22:13:00,
2013-08-11 17:18:00,87.3,69.7,30.00,West,264,0.0,0.0,56,0.00,,,0.00,Wunderground v.1.13,2013-08-11 22:18:00,
2013-08-11 17:28:00,87.1,70.5,30.00,West,264,0.0,0.0,58,0.00,,,0.00,Wunderground v.1.13,2013-08-11 22:28:00,
2013-08-11 17:33:00,87.1,70.5,30.00,West,264,0.0,0.0,58,0.00,,,0.00,Wunderground v.1.13,2013-08-11 22:33:00,
2013-08-11 17:38:00,87.1,70.5,30.00,West,264,0.0,0.0,58,0.00,,,0.00,Wunderground v.1.13,2013-08-11 22:38:00,
2013-08-11 17:48:00,87.6,72.5,30.00,West,264,0.0,0.0,61,0.00,,,0.00,Wunderground v.1.13,2013-08-11 22:48:00,
2013-08-11 17:53:00,86.4,70.9,30.00,West,264,0.0,0.0,60,0.00,,,0.00,Wunderground v.1.13,2013-08-11 22:53:00,
2013-08-11 18:03:00,86.4,70.9,30.00,West,264,0.0,0.0,60,0.00,,,0.00,Wunderground v.1.13,2013-08-11 23:03:00,
2013-08-11 18:13:00,86.2,72.1,30.00,West,264,0.0,0.0,63,0.00,,,0.00,Wunderground v.1.13,2013-08-11 23:13:00,
2013-08-11 18:23:00,84.1,71.1,30.00,West,264,0.0,0.0,65,0.00,,,0.00,Wunderground v.1.13,2013-08-11 23:23:00,
2013-08-11 18:33:00,83.1,70.1,30.00,West,264,0.0,0.0,65,0.00,,,0.00,Wunderground v.1.13,2013-08-11 23:33:00,
2013-08-11 18:38:00,83.0,70.0,30.00,West,264,0.0,0.0,65,0.00,,,0.00,Wunderground v.1.13,2013-08-11 23:38:00,
2013-08-11 18:43:00,82.4,69.4,30.00,West,264,0.0,0.0,65,0.00,,,0.00,Wunderground v.1.13,2013-08-11 23:43:00,
2013-08-11 18:53:00,81.4,68.9,30.00,West,264,0.0,0.0,66,0.00,,,0.00,Wunderground v.1.13,2013-08-11 23:53:00,
2013-08-11 19:08:00,80.4,68.0,29.99,West,264,0.0,0.0,66,0.00,,,0.00,Wunderground v.1.13,2013-08-12 00:08:00,
2013-08-11 19:13:00,80.2,68.2,29.99,West,264,0.0,0.0,67,0.00,,,0.00,Wunderground v.1.13,2013-08-12 00:13:00,
2013-08-11 19:23:00,79.0,67.1,29.99,West,264,0.0,0.0,67,0.00,,,0.00,Wunderground v.1.13,2013-08-12 00:23:00,
2013-08-11 19:28:00,78.7,66.8,30.00,West,264,0.0,0.0,67,0.00,,,0.00,Wunderground v.1.13,2013-08-12 00:28:00,
2013-08-11 19:38:00,78.7,66.8,30.00,West,264,0.0,0.0,67,0.00,,,0.00,Wunderground v.1.13,2013-08-12 00:38:00,
2013-08-11 19:43:00,78.0,66.2,30.00,West,264,0.0,0.0,67,0.00,,,0.00,Wunderground v.1.13,2013-08-12 00:43:00,
2013-08-11 19:53:00,76.1,64.3,30.00,West,264,0.0,0.0,67,0.00,,,0.00,Wunderground v.1.13,2013-08-12 00:53:00,
2013-08-11 20:03:00,75.2,63.1,30.00,N/A,-737280,0.0,0.0,66,0.00,,,0.00,Wunderground v.1.13,2013-08-12 01:03:00,
2013-08-11 20:08:00,73.7,60.8,30.00,West,264,0.0,0.0,64,0.00,,,0.00,Wunderground v.1.13,2013-08-12 01:08:00,
2013-08-11 20:18:00,73.0,60.1,30.00,West,264,0.0,0.0,64,0.00,,,0.00,Wunderground v.1.13,2013-08-12 01:18:00,
2013-08-11 20:28:00,71.9,58.6,30.00,West,264,0.0,0.0,63,0.00,,,0.00,Wunderground v.1.13,2013-08-12 01:28:00,
2013-08-11 20:38:00,71.0,55.0,30.00,West,264,0.0,0.0,57,0.00,,,0.00,Wunderground v.1.13,2013-08-12 01:38:00,
2013-08-11 20:43:00,70.8,54.8,30.00,West,264,0.0,0.0,57,0.00,,,0.00,Wunderground v.1.13,2013-08-12 01:43:00,
2013-08-11 20:53:00,70.5,54.5,30.00,West,264,0.0,0.0,57,0.00,,,0.00,Wunderground v.1.13,2013-08-12 01:53:00,
2013-08-11 21:03:00,70.5,52.0,30.01,West,264,0.0,0.0,52,0.00,,,0.00,Wunderground v.1.13,2013-08-12 02:03:00,
2013-08-11 21:08:00,70.3,51.3,30.01,West,264,0.0,0.0,51,0.00,,,0.00,Wunderground v.1.13,2013-08-12 02:08:00,
2013-08-11 21:18:00,69.9,49.9,30.01,West,264,0.0,0.0,49,0.00,,,0.00,Wunderground v.1.13,2013-08-12 02:18:00,
2013-08-11 21:28:00,69.5,48.9,30.02,West,264,0.0,0.0,48,0.00,,,0.00,Wunderground v.1.13,2013-08-12 02:28:00,
2013-08-11 21:38:00,69.4,47.7,30.02,N/A,-737280,0.0,0.0,46,0.00,,,0.00,Wunderground v.1.13,2013-08-12 02:38:00,
2013-08-11 21:48:00,69.4,45.3,30.02,West,264,0.0,0.0,42,0.00,,,0.00,Wunderground v.1.13,2013-08-12 02:48:00,
2013-08-11 21:58:00,69.3,45.2,30.03,West,264,0.0,0.0,42,0.00,,,0.00,Wunderground v.1.13,2013-08-12 02:58:00,
2013-08-11 22:08:00,69.1,45.0,30.03,West,264,0.0,0.0,42,0.00,,,0.00,Wunderground v.1.13,2013-08-12 03:08:00,
2013-08-11 22:28:00,68.6,43.9,30.03,West,264,0.0,0.0,41,0.00,,,0.00,Wunderground v.1.13,2013-08-12 03:28:00,
2013-08-11 22:33:00,68.6,43.3,30.03,West,264,0.0,0.0,40,0.00,,,0.00,Wunderground v.1.13,2013-08-12 03:33:00,
2013-08-11 22:48:00,68.8,42.8,30.03,N/A,-737280,0.0,0.0,39,0.00,,,0.00,Wunderground v.1.13,2013-08-12 03:48:00,
2013-08-11 22:53:00,68.5,43.2,30.03,West,264,0.0,0.0,40,0.00,,,0.00,Wunderground v.1.13,2013-08-12 03:53:00,
2013-08-11 23:03:00,68.3,43.7,30.02,West,264,0.0,0.0,41,0.00,,,0.00,Wunderground v.1.13,2013-08-12 04:03:00,
2013-08-11 23:08:00,68.5,43.2,30.02,West,264,0.0,0.0,40,0.00,,,0.00,Wunderground v.1.13,2013-08-12 04:08:00,
2013-08-11 23:13:00,68.8,43.5,30.02,West,264,0.0,0.0,40,0.00,,,0.00,Wunderground v.1.13,2013-08-12 04:13:00,
2013-08-11 23:23:00,69.4,45.9,30.02,West,264,0.0,0.0,43,0.00,,,0.00,Wunderground v.1.13,2013-08-12 04:23:00,
2013-08-11 23:28:00,69.6,47.9,30.03,West,264,0.0,0.0,46,0.00,,,0.00,Wunderground v.1.13,2013-08-12 04:28:00,
2013-08-11 23:33:00,69.5,48.9,30.03,West,264,0.0,0.0,48,0.00,,,0.00,Wunderground v.1.13,2013-08-12 04:33:00,
2013-08-11 23:38:00,69.4,48.9,30.03,West,264,0.0,0.0,48,0.00,,,0.00,Wunderground v.1.13,2013-08-12 04:38:00,
2013-08-11 23:43:00,69.3,48.8,30.03,West,264,0.0,0.0,48,0.00,,,0.00,Wunderground v.1.13,2013-08-12 04:43:00,
2013-08-11 23:48:00,69.4,48.3,30.02,West,264,0.0,0.0,47,0.00,,,0.00,Wunderground v.1.13,2013-08-12 04:48:00,
2013-08-11 23:58:00,69.6,49.0,30.03,West,264,0.0,0.0,48,0.00,,,0.00,Wunderground v.1.13,2013-08-12 04:58:00,